Location: M?digepalle
(16.1753°N, 80.3496°E)
Time: 09:06:52
(UTC+00:00)

Okean-O - Pass Details

Date: 29 October 2020
Orbit: 638 x 641 km, 98.2° (Epoch: 28 November)

Event Time Altitude Azimuth Distance (km) Brightness Sun altitude
Rises 12:58:13 0° 149° (SSE) 2,933 5.8 -12.2°
Reaches altitude 10° 13:00:35 10° 140° (SE) 2,026 4.9 -12.8°
Maximum altitude 13:04:33 34° 76° (ENE) 1,063 3.2 -13.7°
Drops below altitude 10° 13:08:32 10° 11° (NNE) 2,028 5.0 -14.7°
Sets 13:10:53 0° 2° (N) 2,937 5.9 -15.2°
